Location: *
(49.4547°N, 7.9131°E)
Time: 18:54:56
(UTC+00:00)

Cosmos 2366 rocket - Pass Details

Date: 22 September 2019
Orbit: 955 x 997 km, 82.9° (Epoch: 22 October)

Event Time Altitude Azimuth Distance (km) Brightness Sun altitude
Rises 18:42:47 0° 352° (N) 3,728 7.4 -13.0°
Reaches altitude 10° 18:45:23 10° 357° (N) 2,776 6.6 -13.4°
Maximum altitude 18:51:40 56° 76° (ENE) 1,173 4.1 -14.3°
Drops below altitude 10° 18:57:52 10° 154° (SSE) 2,753 6.0 -15.3°
Enters shadow 18:58:01 - 154° (SSE) 2,806 6.0 -15.3°
